Regional Weather Roundup
Issued by NWS

Home | Current Version | Previous Version | Text Only | Print | Product List | Glossary Off
Versions: 1 2 3 4 5 6 7 8 9 10 11 12 13 14 15 16 17 18 19 20 21 22 23 24 25 26 27 28 29 30 31 32 33 34 35 36 37 38 39 40 41 42 43 44 45 46 47 48 49 50

000
ASUS43 KLSX 250259
RWRMO

WEATHER SUMMARY FOR MISSOURI
NATIONAL WEATHER SERVICE SPRINGFIELD MO
1000 PM CDT THU JUL 24 2014

NOTE: "FAIR" INDICATES FEW OR NO CLOUDS BELOW 12,000 FEET WITH NO
       SIGNIFICANT WEATHER AND/OR OBSTRUCTIONS TO VISIBILITY.
       CURRENT SKY AND/OR WEATHER CONDITIONS ARE NOT AVAILABLE FOR
       CHILLICOTHE AND FARMINGTON.

MOZ001>031-035>038-043-044-053-054-250400-
...NORTHERN AND WESTERN MISSOURI...

CITY           SKY/WX    TMP DP  RH WIND       PRES   REMARKS
KANSAS CTY INT CLEAR     75  59  57 SE9       30.04R
KANSAS C DTWN  CLEAR     77  59  53 E7        30.02R
LEE`S SUMMIT   CLEAR     72  60  66 E7        30.05R
ST JOSEPH      CLEAR     72  61  68 SE9       30.01R
CHILLICOTHE      N/A     72  59  63 CALM      30.05R
KIRKSVILLE     PTCLDY    64  60  87 S7        30.04F

$$
MOZ066>068-077>081-088>096-101>105-250400-
...SOUTHWEST MISSOURI...

CITY           SKY/WX    TMP DP  RH WIND       PRES   REMARKS
SPRINGFIELD    CLEAR     73  59  61 E7        30.05R
JOPLIN         CLEAR     77  65  66 E6        30.03R

$$
MOZ032>034-039>042-045>050-055>058-069>072-250400-
...CENTRAL MISSOURI...

CITY           SKY/WX    TMP DP  RH WIND       PRES   REMARKS
COLUMBIA       PTCLDY    68  57  68 E7        30.06F
JEFFERSON CITY CLEAR     70  56  61 E5        30.06S
ROLLA          CLEAR     67  53  61 E6        30.06R
SEDALIA        CLEAR     71  59  65 E6        30.06S
OSAGE BEACH    CLEAR     70  57  64 E5        30.05F

$$
MOZ051-052-059>065-250400-
...EAST CENTRAL MISSOURI...

CITY           SKY/WX    TMP DP  RH WIND       PRES   REMARKS
ST LOUIS INTL  PTCLDY    70  54  56 N5        30.08R
SPIRIT OF STL  CLEAR     63  56  78 S3        30.06R
ST CHARLES     CLEAR     65  60  84 CALM      30.06R

$$
MOZ072>076-082>087-097>100-106>115-250400-
...SOUTH CENTRAL AND SOUTHEAST MISSOURI...

CITY           SKY/WX    TMP DP  RH WIND       PRES   REMARKS
CAPE GIRARDEAU CLEAR     65  63  93 SE3       30.05S
FARMINGTON     CLEAR     63  57  82 CALM      30.09S
POPLAR BLUFF   CLEAR     66  62  87 CALM      30.05R
WEST PLAINS    CLEAR     65  60  84 E3        30.09R

$$



USA.gov is the U.S. government's official web portal to all federal, state and local government web resources and services.